Weather Roundup
Issued by NWS

Home | Current Version | Previous Version | Text Only | Print | Product List | Glossary On
Versions: 1 2 3 4 5 6 7 8 9 10 11 12 13 14 15 16 17 18 19 20 21 22 23 24 25 26 27 28 29 30 31 32 33 34 35 36 37 38 39 40 41 42 43 44 45 46 47 48 49 50
000
NZUS93 KARX 081610
HRRWXR

CURRENT HOURLY OBSERVATIONS ACROSS
MUCH OF THE UPPER MISSISSIPPI VALLEY
NATIONAL WEATHER SERVICE LA CROSSE WI
1000 AM CST THU DEC 08 2016


...SOUTHEAST MINNESOTA...


CITY           SKY/WX    TMP DP  RH WIND       PRES   REMARKS
ROCHESTER      CLOUDY    18  14  84 NW18      30.30R WCI   2
ROCHESTER/MAYO CLOUDY    19  15  83 W16G22    30.31R WCI   4
WINONA         CLOUDY    23  18  80 NW13      30.32R WCI  11
AUSTIN         FLURRIES  18  12  79 NW21      30.34R WCI   1
ALBERT LEA     LGT SNOW  21  16  79 NW14G22   30.36R WCI   8
DODGE CENTER   FLURRIES  18  12  79 W16G25    30.32R WCI   3
PRESTON        LGT SNOW  17  13  82 NW15G21   30.31R WCI   3
OWATONNA       LGT SNOW  18  12  79 W17G26    30.35R WCI   2
FARIBAULT      FLURRIES  19  14  79 W15G21    30.36R WCI   5
$$

...ELSEWHERE IN MINNESOTA...


CITY           SKY/WX    TMP DP  RH WIND       PRES   REMARKS
MINNEAPOLIS    PTSUNNY   23  14  68 NW18      30.34R WCI   9
INTNL FALLS    LGT SNOW  20  15  81 N12       30.29R VSB 1   WCI   8
DULUTH         CLOUDY    20  15  81 NW15G28   30.20R WCI   6
RED WING       CLOUDY    23  16  74 W8G17     30.31R WCI  14
REDWOOD FALLS  FLURRIES  15   8  73 NW16      30.47R WCI  -1
MANKATO        SUNNY     17  12  80 W22G28    30.40R WCI   0
WORTHINGTON    MOSUNNY   12   7  80 NW22      30.47R WCI  -7
FAIRMONT       FLURRIES  15   9  76 NW25G33   30.44R WCI  -4
$$

...SOUTHWEST WISCONSIN...


CITY           SKY/WX    TMP DP  RH WIND       PRES   REMARKS
LA CROSSE      CLOUDY    24  15  68 NW13      30.30R WCI  12
PRAIRIE DU CHI FLURRIES  21  12  68 W15       30.34R WCI   7
BOSCOBEL       CLOUDY    21  12  68 W8        30.33R WCI  11
LONE ROCK      CLOUDY    20  12  71 W14       30.29R WCI   7
PLATTEVILLE    CLOUDY    18  13  82 W17G23    30.31R WCI   2
FORT MC COY    CLOUDY    21  15  78 W9        30.27R WCI  10
CAMP DOUGLAS   CLOUDY    21  14  73 W14       30.23R WCI   8
MAUSTON-NEW LI CLOUDY    21  14  75 W15G23    30.23R WCI   8
VIROQUA        CLOUDY    18  14  86 W13G18    30.25R WCI   5
WIS DELLS      FLURRIES  19  12  77 W10G16    30.24R WCI   7
$$

...ELSEWHERE IN WISCONSIN...


CITY           SKY/WX    TMP DP  RH WIND       PRES   REMARKS
MILWAUKEE      FLURRIES  21   9  59 W22G30    30.19R WCI   5
MADISON        MOSUNNY   18  10  71 W15       30.23R WCI   4
GREEN BAY      FLURRIES  25  17  72 W20       30.11R WCI  11
EAU CLAIRE     CLOUDY    23  17  78 NW14      30.25R WCI  11
BLACK RVR FLS  CLOUDY    21  14  75 W8G17     30.25R WCI  11
MEDFORD        CLOUDY    21  16  81 NW9G17    30.14R WCI  10
WAUSAU         CLOUDY    21  16  81 W10       30.13R WCI  10
WIS RAPIDS     CLOUDY    20  15  81 NW13G21   30.20R WCI   7
MARSHFIELD     CLOUDY    20  15  81 W10       30.16R WCI   9
RICE LAKE      LGT SNOW  22  17  80 W12       30.25R WCI  11
$$

...NORTHEAST IOWA...


CITY           SKY/WX    TMP DP  RH WIND       PRES   REMARKS
WATERLOO       CLOUDY    17  10  74 W17G23    30.40R WCI   1
DUBUQUE        CLOUDY    15  10  80 W15       30.33R WCI   0
DECORAH        CLOUDY    18  14  86 NW8G16    30.31R WCI   7
MASON CITY     CLOUDY    18  11  74 NW26G35   30.40R WCI  -1
CHARLES CITY   CLOUDY    18  12  79 NW17G23   30.37R WCI   2
OELWEIN        LGT SNOW  18  12  79 NW22      30.37R WCI   0
$$

...ELSEWHERE IN IOWA...


CITY           SKY/WX    TMP DP  RH WIND       PRES   REMARKS
DES MOINES     MOSUNNY   16   6  65 NW18      30.52R WCI   0
IOWA CITY      CLOUDY    18   9  68 W16G28    30.46R WCI   3
FORT DODGE     PTSUNNY   16   7  67 NW13G24   30.48R WCI   2
MARSHALLTOWN   CLOUDY    16   9  74 W25       30.45R WCI  -3
CEDAR RAPIDS   FLURRIES  16  13  88 W22       30.41R WCI  -2
$$

...NORTHERN ILLINOIS...


CITY           SKY/WX    TMP DP  RH WIND       PRES   REMARKS
CHICAGO-OHARE  FLURRIES  18   9  68 W20G30    30.27R WCI   2
CHICAGO-MIDWAY FLURRIES  19   9  65 W17G25    30.29R WCI   4
MOLINE         CLOUDY    18   8  65 W22G30    30.41R WCI   1
ROCKFORD       FLURRIES  18   9  68 W21G26    30.32R WCI   1
PEORIA         PTSUNNY   19   9  65 W17G25    30.42R WCI   4
$$

NOTE: "FAIR" INDICATES FEW OR NO CLOUDS BELOW 12,000 FEET WITH NO
SIGNIFICANT WEATHER AND/OR OBSTRUCTIONS TO VISIBILITY. WIND
SPEEDS ARE IN MILES-PER-HOUR.




USA.gov is the U.S. government's official web portal to all federal, state and local government web resources and services.